Location: Seasalter
(51.3333°N, 1.0167°E)
Time: 04:46:21
(UTC+00:00)

Cosmos 2266 Rocket - Pass Details

Date: 26 September 2023
Orbit: 933 x 1008 km, 82.9° (Epoch: 29 November)

Event Time Altitude Azimuth Distance (km) Brightness Sun altitude
Exits shadow 04:07:44 13° 208° (SSW) 2,530 5.7 -16.2°
Maximum altitude 04:13:21 57° 285° (WNW) 1,158 4.1 -15.4°
Drops below altitude 10° 04:19:40 10° 4° (N) 2,790 6.7 -14.4°
Sets 04:22:18 0° 9° (N) 3,749 7.4 -14.0°
